Location: Crescent
(42.8242°N, 73.7329°W)
Time: 19:12:13
(UTC+00:00)

Explorer 7 - Pass Details

Date: 19 February 2026
Orbit: 430 x 541 km, 50.2° (Epoch: 10 March)

Event Time Altitude Azimuth Distance (km) Brightness Sun altitude
Rises 00:27:07 0° 301° (WNW) 2,531 11.3 -22.0°
Reaches altitude 10° 00:29:17 10° 306° (NW) 1,671 10.1 -22.4°
Enters shadow 00:32:23 46° 349° (N) 673 7.3 -23.0°
Maximum altitude 00:33:00 52° 24° (NNE) 624 - -23.1°
Drops below altitude 10° 00:36:51 10° 102° (ESE) 1,734 - -23.8°
Sets 00:39:08 0° 107° (ESE) 2,637 - -24.2°
